{"data":{"norad_id":66026,"epoch":"2026-09-20T06:26:04.355808Z","epoch_age_seconds":123189,"freshness":"FRESH","line1":"1 66026U 25232X   26263.26810597  .00023433  00000+0  70251-3 0  9993","line2":"2 66026  53.1577 276.7590 0001657  90.8641 269.2552 15.34399911 53265","mean_motion":15.34399911,"eccentricity":0.0001657,"inclination_deg":53.1577,"raan_deg":276.759,"arg_perigee_deg":90.8641,"mean_anomaly_deg":269.2552,"bstar":0.00070251,"rev_number":5326,"period_min":93.847763524799,"perigee_km":461.56997746224,"apogee_km":463.83703200551,"semimajor_km":6840.8405047339,"source":"CELESTRAK","updated_at":"2026-09-21T09:00:35.772601Z"}}